Temperature
20 19 19 19 19 19 20 20 20 20 20 20 20 19 19 19 19 19 19 19 19 19 19 19 19 20 20 20 20 20 20 20 20 19 19 19 19 19 19 19 19 19 19
20 20 20 19 19 20 20 20 20 20 20 20 20 20 19 19 19 19 19 19 19 19 19 19 19 19 20 20 20 20 20 19 19 19 19 19 19 19 19 19 19 19 19
20 20 20 20 20 20 20 20 20 20 20 20 20 20 20 20 20 20 20 20 19 19 19 19 19 19 19 19 19 19 19 19 19 19 19 19 19 19 19 19 19 19 19
20 20 20 20 20 20 20 20 20 20 20 20 20 20 20 20 20 20 20 20 19 19 19 19 19 19 19 19 19 19 19 19 19 19 19 19 19 19 19 19 19 19 19
20 20 20 20 20 20 20 20 20 20 20 20 20 20 20 20 20 20 20 20 19 19 19 19 19 19 19 19 19 19 19 19 19 19 19 19 19 19 19 19 19 19 19
20 20 20 20 20 20 20 20 20 20 20 20 20 20 20 20 20 20 20 19 19 19 19 19 18 18 18 19 19 19 19 19 19 19 19 19 19 19 19 19 19 19 19
20 20 20 20 20 20 20 20 20 20 20 20 20 20 20 20 20 19 19 19 19 19 19 18 18 18 18 18 18 18 19 19 19 19 19 19 19 19 19 19 19 18 18
20 20 20 20 20 20 20 19 19 19 19 19 19 19 19 19 19 19 19 19 19 19 18 18 18 18 18 18 18 18 18 18 18 19 18 18 18 18 19 18 18 18 18
20 20 20 20 20 20 20 19 19 19 19 19 19 19 19 19 19 19 19 19 19 19 18 18 18 18 18 18 18 18 18 18 18 18 18 18 18 18 18 18 18 18 18
20 20 20 20 20 20 20 19 19 19 19 19 19 19 19 19 19 19 19 19 19 19 18 18 18 18 18 18 18 18 18 18 18 18 18 18 18 18 18 18 18 18 18
20 20 20 20 20 20 20 20 19 19 19 19 19 19 19 19 19 19 19 19 19 18 18 18 18 18 18 18 18 18 18 18 18 18 18 18 18 18 18 18 18 18 18
20 20 20 20 20 20 20 20 19 19 19 19 19 19 19 19 19 19 19 19 19 18 18 18 18 18 18 18 18 18 18 18 18 18 17 18 18 18 18 18 18 18 18
20 20 20 20 20 20 20 20 19 19 19 19 19 19 19 19 19 19 19 19 19 19 18 18 18 18 18 18 18 18 18 18 18 17 17 17 17 18 18 18 18 18 18
20 20 20 20 20 20 20 20 19 19 19 19 19 19 19 19 18 18 19 19 19 19 18 18 18 18 18 18 18 18 18 18 18 17 17 17 17 17 17 17 18 18 18
19 19 19 20 20 20 20 19 19 19 19 19 19 19 19 19 18 18 18 19 19 19 19 18 18 18 18 18 18 18 18 18 18 17 17 17 17 17 17 17 17 18 18
18 19 19 19 19 19 19 19 19 19 19 19 19 19 19 19 18 18 18 19 19 19 18 18 18 18 18 18 18 18 18 18 18 17 17 17 17 17 17 17 17 17 17
17 17 18 19 19 19 19 19 19 19 19 19 18 18 18 18 18 18 18 18 18 18 18 18 18 18 18 18 18 18 18 18 18 17 17 17 17 17 17 17 17 17 17
17 17 17 18 19 19 19 19 19 19 19 19 18 18 18 18 18 18 18 18 18 18 18 18 18 18 18 18 18 18 18 18 17 17 17 17 17 17 17 17 17 17 17
16 17 17 17 18 18 19 19 19 19 19 19 19 18 18 18 18 18 18 18 18 18 18 18 18 18 18 18 18 18 18 17 17 17 17 17 17 17 17 17 17 17 17
16 16 16 17 17 18 18 19 19 19 18 19 19 19 18 18 18 18 18 18 18 18 18 18 18 18 18 18 18 17 17 17 17 17 17 17 17 17 17 17 17 17 17
15 16 16 16 17 17 18 18 18 19 19 19 19 19 18 18 18 18 18 18 18 18 18 18 18 18 18 18 17 17 17 17 17 17 17 17 17 17 17 17 17 17 17
15 15 16 16 16 16 17 17 18 18 18 19 19 18 18 18 18 18 18 18 18 18 18 18 17 17 17 17 17 17 17 17 17 17 17 17 17 17 17 17 17 17 17
14 14 15 15 15 16 16 16 17 17 18 18 18 19 18 18 18 18 18 18 18 18 18 17 17 17 17 17 17 17 17 17 17 17 17 17 17 17 17 17 17 17 17
13 14 14 14 14 15 15 16 16 16 16 17 18 18 18 18 18 18 18 18 18 18 18 18 17 17 17 17 17 17 17 17 17 17 17 17 17 17 17 17 17 17 17
13 13 13 13 14 14 14 15 15 15 16 16 17 17 17 18 18 18 17 17 17 17 17 17 17 17 17 17 17 17 16 16 16 16 16 17 17 17 17 17 17 17 17
12 12 13 13 13 13 14 14 15 15 15 15 16 17 17 17 17 17 17 17 17 17 17 17 16 16 16 16 16 16 16 16 16 16 16 16 16 16 16 16 17 17 17
Wind_Speed
5 8 11 11 12 12 12 13 13 14 14 15 15 15 15 14 14 13 12 11 10 9 9 8 8 9 10 10 11 10 10 11 11 11 11 11 12 12 11 10 9 8 10
9 11 13 13 13 12 12 12 12 12 13 13 13 13 13 13 13 12 12 11 10 9 9 8 8 9 9 10 10 10 10 10 11 11 11 11 11 12 11 11 10 8 9
11 12 14 14 13 12 12 11 11 11 11 12 12 12 12 12 11 11 10 10 10 9 9 8 8 9 9 9 9 9 9 9 10 10 10 8 9 11 11 11 11 10 9
12 13 13 15 14 13 12 11 11 10 10 10 10 11 11 10 10 10 9 9 9 8 8 8 8 8 8 8 8 8 8 8 9 9 8 7 8 11 11 11 11 10 9
11 12 14 15 14 13 12 11 11 10 10 10 10 9 9 9 9 9 9 8 8 7 7 7 7 7 6 6 7 7 7 8 9 8 8 7 7 9 10 10 10 10 9
9 12 14 16 14 13 12 12 11 10 10 10 9 9 8 8 8 8 7 7 7 7 6 5 5 5 5 5 6 6 7 8 9 8 7 6 6 8 9 9 9 9 8
9 11 13 16 15 14 13 12 11 11 10 10 9 8 8 7 7 7 7 6 6 5 5 4 4 4 4 5 5 5 6 7 7 6 6 5 5 7 8 8 8 8 8
10 10 13 16 15 14 13 13 12 12 11 10 9 8 7 7 6 6 5 5 5 4 4 4 3 3 4 4 4 4 4 5 6 5 4 3 4 6 6 7 7 7 7
8 8 10 13 15 15 14 13 13 12 12 10 9 8 7 7 6 5 4 4 3 3 2 3 3 4 4 4 4 4 3 4 6 5 3 2 2 4 5 5 5 6 6
6 6 7 10 12 12 13 14 14 13 13 11 10 9 8 7 6 5 4 3 2 2 1 2 3 4 4 4 4 4 4 4 4 4 2 1 2 3 4 5 5 5 6
7 5 5 6 8 10 11 13 14 14 14 12 11 10 8 6 5 5 5 4 3 2 1 1 2 3 5 6 5 4 4 3 2 2 2 1 2 3 4 4 5 5 5
9 8 6 6 6 8 10 10 11 11 12 12 10 10 8 7 6 5 5 6 5 4 2 1 2 3 5 5 5 4 2 2 1 2 2 1 2 3 3 4 4 4 5
7 8 9 7 7 7 6 7 8 8 9 10 11 10 9 7 6 5 4 5 4 3 1 2 3 3 2 2 2 1 0 1 2 3 2 1 2 3 3 3 3 3 3
4 6 7 8 6 7 7 6 7 6 7 8 11 12 9 6 5 5 4 5 4 3 2 2 2 2 2 2 2 2 2 2 3 4 3 2 2 3 3 3 2 2 2
5 4 5 6 8 7 6 5 6 7 8 9 10 12 12 6 4 5 5 6 6 5 4 3 3 3 3 3 4 5 5 5 5 5 4 3 4 4 3 3 3 2 1
9 7 5 4 7 7 8 7 6 8 9 10 10 12 14 11 7 5 4 5 6 7 6 5 3 2 2 2 3 4 6 6 6 5 5 4 4 4 4 4 3 3 2
11 9 8 5 3 6 8 9 7 8 9 8 10 13 14 13 10 7 4 4 6 8 6 4 3 2 2 1 2 2 4 5 5 6 5 4 4 5 5 5 4 4 4
12 11 10 8 5 4 5 7 6 7 8 8 11 12 15 15 13 8 5 6 7 7 5 3 3 2 2 2 1 1 2 3 4 5 5 5 5 4 5 4 4 4 4
11 12 11 10 9 7 5 5 6 5 6 8 10 11 13 14 15 10 6 6 7 5 4 4 3 3 3 3 2 1 1 2 3 4 5 6 6 6 5 5 4 4 3
10 10 10 10 9 8 5 3 4 5 6 6 7 9 11 12 13 11 6 6 6 4 5 4 4 3 3 4 3 2 1 2 2 4 4 6 7 7 7 5 5 4 4
10 10 10 10 10 8 5 3 3 4 5 6 6 8 11 11 11 9 6 6 6 6 6 6 4 4 2 3 3 1 1 1 3 4 3 4 6 8 8 8 7 6 5
10 10 10 10 10 8 6 5 4 4 5 5 6 7 10 11 11 9 8 7 7 6 6 6 5 4 3 4 4 3 1 3 2 2 3 4 5 5 7 9 8 8 7
11 10 10 10 10 8 8 6 5 4 3 3 5 6 7 10 11 10 9 8 8 7 7 7 7 7 4 3 2 4 4 5 3 2 2 2 3 4 4 6 9 10 9
12 10 9 9 9 8 7 6 6 4 5 5 4 5 6 7 8 10 8 9 9 7 7 8 7 5 5 4 2 1 2 3 3 1 2 2 2 4 4 5 7 10 11
11 10 9 9 9 8 7 7 6 5 5 4 3 4 5 5 5 7 8 8 9 8 8 8 7 6 5 5 4 3 2 1 2 3 2 2 2 2 3 5 5 8 11
10 9 9 9 8 8 7 7 7 7 6 5 4 3 3 3 3 5 6 7 8 7 8 7 7 7 5 5 4 4 4 3 4 4 4 3 2 2 2 3 4 6 10
Wind_Direction
172 171 163 149 141 136 131 125 121 119 119 119 119 119 120 120 121 121 120 119 120 123 124 124 123 120 119 117 112 109 106 101 96 92 86 83 86 95 96 97 96 90 89
152 162 159 151 146 141 136 131 127 123 121 121 121 121 120 120 120 120 121 120 120 120 119 118 120 118 117 115 112 109 107 103 98 90 83 80 88 94 93 92 95 97 92
144 155 156 153 151 148 144 139 133 128 125 124 123 122 121 120 120 121 121 121 121 122 121 120 119 120 118 114 112 107 105 104 101 96 86 76 85 91 92 91 91 93 91
146 150 154 156 155 153 151 147 141 136 133 128 126 124 123 121 121 121 122 121 120 120 120 121 123 124 121 117 110 104 103 106 105 104 90 79 84 91 90 90 90 91 90
146 149 158 159 159 159 158 155 150 145 141 137 134 131 128 125 123 122 122 121 120 118 118 118 121 124 121 115 110 105 103 107 109 109 99 89 89 96 93 89 88 88 87
144 151 163 162 163 164 164 162 158 155 151 147 143 139 135 131 126 122 119 119 118 116 115 114 117 121 119 114 109 103 101 107 109 110 105 99 97 100 96 92 88 85 85
148 155 167 167 168 169 170 170 168 165 160 158 154 150 146 140 133 127 121 117 115 112 108 103 108 115 113 109 106 102 101 110 115 112 107 101 105 106 97 93 91 87 86
155 159 171 173 175 176 177 178 177 174 170 168 165 163 160 155 147 139 132 125 118 108 96 88 86 96 99 94 94 95 98 113 123 113 107 97 108 105 100 96 95 91 86
159 163 173 178 181 183 184 185 184 180 178 178 177 179 175 170 165 160 153 144 133 115 90 77 73 74 76 73 72 74 87 108 130 129 119 113 109 109 107 101 101 95 87
167 175 180 183 184 187 190 191 190 187 186 186 188 191 190 188 187 186 182 178 170 153 100 67 59 55 55 54 56 63 74 100 131 131 126 144 132 118 114 110 106 100 93
190 197 192 191 191 191 193 198 196 194 193 194 197 200 198 197 198 202 203 209 216 218 227 27 36 38 44 43 42 56 69 86 135 140 158 172 142 128 119 114 108 106 102
201 204 202 201 200 196 201 204 201 197 196 197 198 200 193 192 200 210 220 227 233 240 258 303 351 22 40 37 32 45 58 86 164 205 218 198 155 139 131 124 117 116 113
213 210 207 205 205 202 208 203 199 198 194 195 195 195 192 194 205 215 221 243 257 264 281 339 2 11 17 17 16 21 4 230 216 231 251 244 190 163 143 133 123 123 124
262 233 222 207 207 210 211 211 201 200 198 198 198 195 190 191 203 211 216 225 234 239 237 251 271 294 292 267 252 250 246 230 217 225 249 251 216 197 177 163 153 138 128
348 309 264 220 213 211 211 217 210 208 209 206 201 201 198 197 201 210 220 222 223 223 224 234 248 270 274 264 247 231 227 219 213 215 237 244 226 223 213 196 185 181 173
356 342 321 255 224 212 213 218 217 214 212 206 205 207 206 207 208 207 214 217 219 217 219 223 237 257 271 265 246 224 217 209 207 209 226 243 235 232 238 228 213 208 214
357 349 338 311 268 229 222 223 224 217 211 210 213 211 209 210 212 211 211 218 220 213 207 211 228 244 252 229 219 201 199 198 199 206 218 234 240 236 239 245 244 229 227
360 356 350 341 332 288 250 236 231 220 211 215 216 213 212 212 211 207 212 224 221 199 187 189 198 209 220 191 176 188 183 187 199 209 218 231 238 240 240 245 255 240 234
356 354 350 347 346 328 290 257 239 233 222 221 216 213 213 213 211 207 212 221 215 191 185 196 181 177 187 184 177 185 215 198 196 212 219 228 233 237 239 244 241 233 236
349 350 348 346 346 340 322 281 246 236 235 233 221 213 208 210 212 209 212 216 203 194 192 186 176 168 175 168 155 142 220 225 207 216 222 226 230 232 232 235 235 235 237
345 347 343 345 343 344 338 318 278 249 238 236 229 216 207 204 205 203 211 204 192 197 197 182 163 163 158 138 118 98 326 261 227 232 224 224 228 228 226 227 227 228 232
343 343 340 339 335 337 328 309 281 270 253 237 230 219 212 205 203 207 204 200 192 193 187 175 161 155 160 155 146 134 286 317 284 237 230 228 230 220 223 226 224 225 226
338 338 336 331 327 328 327 316 304 283 272 249 230 222 219 212 203 200 198 194 188 186 190 185 179 166 170 173 161 151 165 220 269 295 262 242 229 217 226 225 225 226 226
331 330 328 325 323 325 328 326 316 299 279 267 257 238 226 215 203 197 190 183 183 184 185 188 186 180 161 170 175 167 157 157 166 281 307 293 250 226 229 229 229 228 226
326 328 327 325 323 325 328 326 318 306 289 284 273 248 237 218 201 191 185 181 182 183 181 180 177 183 178 173 174 168 159 153 157 171 245 291 314 265 238 231 232 231 228
328 330 332 331 328 331 333 335 332 324 312 300 284 258 237 210 194 187 184 185 184 177 178 180 178 182 189 186 185 180 172 171 185 181 204 228 253 280 276 249 236 236 233
Height
1530 1532 1535 1537 1539 1540 1542 1543 1545 1546 1547 1548 1549 1550 1551 1552 1553 1554 1555 1556 1556 1557 1558 1558 1559 1559 1560 1560 1561 1561 1561 1561 1561 1561 1561 1561 1561 1561 1561 1560 1560 1560 1560
1529 1533 1535 1538 1540 1541 1543 1544 1546 1547 1548 1549 1550 1551 1552 1553 1554 1555 1556 1556 1557 1558 1558 1559 1559 1560 1560 1561 1561 1562 1562 1562 1563 1563 1563 1563 1562 1562 1562 1562 1561 1561 1561
1530 1533 1536 1538 1541 1542 1544 1545 1547 1548 1549 1550 1551 1552 1553 1554 1555 1555 1556 1557 1557 1558 1559 1559 1560 1561 1561 1562 1562 1563 1563 1564 1564 1564 1564 1564 1564 1563 1563 1563 1563 1563 1563
1531 1534 1537 1539 1541 1543 1545 1546 1547 1548 1550 1551 1552 1553 1554 1554 1555 1556 1556 1557 1558 1558 1559 1559 1560 1561 1562 1562 1563 1564 1564 1565 1565 1565 1566 1566 1565 1565 1565 1565 1564 1564 1564
1532 1535 1537 1540 1542 1544 1545 1547 1548 1549 1550 1551 1552 1553 1554 1555 1555 1556 1556 1557 1558 1558 1559 1560 1560 1561 1562 1563 1564 1564 1565 1565 1566 1566 1567 1566 1566 1566 1566 1566 1566 1565 1565
1533 1536 1538 1541 1543 1544 1546 1547 1549 1550 1550 1551 1552 1553 1554 1555 1556 1556 1557 1557 1558 1558 1559 1559 1560 1561 1562 1563 1564 1565 1565 1566 1567 1567 1567 1567 1567 1567 1567 1567 1567 1567 1566
1533 1536 1539 1541 1543 1545 1546 1548 1549 1550 1551 1552 1553 1554 1555 1555 1556 1557 1557 1557 1558 1558 1559 1559 1560 1561 1562 1563 1564 1565 1566 1567 1567 1567 1568 1568 1568 1568 1568 1568 1568 1568 1568
1535 1537 1539 1541 1543 1545 1546 1548 1549 1550 1551 1552 1553 1554 1555 1556 1556 1557 1557 1557 1558 1558 1559 1560 1560 1561 1562 1563 1564 1565 1566 1567 1567 1568 1568 1568 1568 1569 1569 1569 1569 1569 1569
1536 1538 1540 1541 1543 1544 1546 1547 1548 1550 1551 1552 1553 1554 1555 1555 1556 1556 1557 1557 1558 1559 1559 1560 1560 1561 1562 1563 1564 1565 1566 1567 1568 1568 1568 1569 1569 1569 1569 1569 1570 1570 1570
1537 1538 1540 1541 1543 1544 1546 1547 1548 1549 1550 1551 1552 1553 1554 1555 1555 1556 1556 1557 1558 1558 1559 1560 1560 1561 1562 1563 1564 1565 1567 1567 1568 1569 1569 1569 1569 1569 1569 1569 1570 1570 1570
1537 1538 1540 1541 1543 1544 1545 1546 1547 1548 1550 1551 1552 1553 1553 1554 1555 1555 1556 1556 1557 1558 1559 1560 1560 1561 1562 1563 1564 1566 1567 1568 1568 1569 1569 1569 1569 1569 1569 1569 1570 1571 1571
1537 1538 1540 1541 1542 1544 1545 1546 1546 1547 1549 1550 1551 1551 1552 1553 1554 1554 1555 1556 1557 1558 1559 1560 1561 1561 1562 1563 1564 1566 1567 1568 1568 1569 1569 1569 1568 1568 1569 1569 1570 1571 1571
1539 1539 1540 1541 1542 1543 1544 1545 1545 1546 1547 1548 1549 1550 1551 1552 1553 1553 1554 1555 1556 1557 1558 1559 1561 1562 1563 1564 1565 1566 1567 1568 1568 1568 1568 1568 1568 1568 1568 1569 1570 1570 1571
1540 1540 1541 1541 1542 1542 1543 1544 1544 1545 1546 1546 1547 1548 1549 1551 1552 1553 1553 1554 1555 1556 1557 1559 1560 1562 1563 1564 1565 1566 1567 1568 1568 1568 1568 1567 1567 1567 1567 1568 1569 1570 1571
1538 1539 1540 1540 1541 1541 1542 1542 1542 1543 1544 1545 1546 1547 1548 1549 1550 1551 1552 1553 1554 1555 1557 1558 1560 1561 1563 1564 1565 1566 1567 1567 1568 1568 1567 1567 1567 1567 1567 1568 1569 1570 1570
1536 1536 1536 1537 1538 1539 1539 1540 1541 1541 1542 1543 1543 1544 1546 1547 1549 1550 1551 1552 1553 1554 1556 1557 1559 1561 1562 1563 1564 1565 1566 1567 1567 1567 1567 1567 1566 1566 1567 1567 1568 1569 1570
1535 1534 1533 1533 1534 1535 1536 1537 1538 1539 1539 1540 1541 1542 1543 1545 1546 1548 1549 1550 1552 1553 1554 1556 1558 1560 1561 1562 1563 1564 1565 1566 1566 1567 1567 1567 1567 1567 1567 1567 1568 1568 1569
1534 1532 1531 1530 1530 1530 1532 1533 1534 1535 1536 1536 1537 1538 1540 1541 1543 1545 1547 1548 1550 1551 1553 1555 1556 1558 1560 1561 1562 1563 1564 1565 1565 1566 1566 1566 1567 1567 1567 1567 1567 1568 1568
1533 1531 1529 1528 1527 1526 1527 1528 1529 1530 1531 1532 1533 1534 1536 1537 1539 1541 1543 1546 1548 1549 1551 1552 1554 1556 1558 1559 1561 1562 1562 1563 1564 1564 1565 1566 1566 1567 1567 1567 1567 1567 1567
1533 1530 1528 1526 1524 1523 1522 1522 1523 1524 1525 1527 1528 1530 1531 1533 1535 1537 1539 1541 1544 1546 1548 1549 1551 1553 1555 1557 1559 1560 1561 1561 1562 1563 1564 1564 1565 1566 1566 1567 1567 1567 1567
1531 1528 1526 1524 1521 1520 1518 1518 1518 1518 1520 1521 1523 1525 1527 1528 1530 1532 1534 1537 1539 1541 1544 1546 1548 1550 1552 1554 1556 1557 1558 1559 1560 1561 1562 1562 1563 1564 1565 1566 1566 1567 1567
1529 1526 1524 1521 1519 1517 1515 1514 1513 1513 1513 1515 1517 1518 1520 1522 1524 1527 1529 1532 1534 1537 1539 1542 1544 1546 1549 1551 1553 1554 1555 1557 1556 1557 1558 1559 1561 1562 1563 1564 1565 1565 1566
1527 1524 1521 1519 1517 1514 1512 1510 1509 1508 1508 1509 1510 1512 1514 1516 1518 1521 1523 1526 1529 1532 1534 1537 1539 1542 1544 1547 1549 1551 1552 1552 1553 1554 1554 1556 1557 1558 1560 1561 1562 1563 1564
1525 1522 1519 1517 1514 1511 1509 1507 1505 1504 1503 1503 1505 1506 1508 1511 1513 1515 1518 1520 1523 1526 1528 1531 1534 1537 1540 1542 1544 1546 1548 1549 1550 1550 1551 1552 1553 1554 1556 1558 1559 1560 1561
1523 1520 1517 1514 1512 1509 1506 1504 1503 1501 1499 1499 1500 1501 1502 1505 1507 1510 1513 1515 1518 1520 1522 1525 1528 1532 1535 1538 1540 1541 1543 1544 1546 1547 1548 1549 1550 1551 1552 1554 1555 1557 1558
1521 1518 1515 1512 1510 1507 1504 1502 1500 1498 1496 1495 1495 1496 1498 1500 1502 1504 1507 1510 1512 1514 1517 1520 1523 1526 1529 1532 1534 1536 1538 1539 1540 1542 1544 1545 1546 1547 1548 1550 1551 1553 1554